Wind_Speed
13 13 12 11 10 9 8 6 6 5 6 6 6 6 8 9 8 3 5 7 13 24 27 24 13 5 4 2 3 1 2 2 6 6 3 6 5 8 4 11 1 5 5 9 27
13 12 12 11 10 9 8 7 6 6 6 6 7 5 8 11 5 8 7 13 16 28 27 23 16 12 2 4 5 4 3 5 8 9 7 10 8 8 5 10 2 6 14 26 27
14 13 12 12 10 9 9 7 6 5 6 6 6 5 8 9 2 5 16 15 19 27 13 16 13 12 3 3 5 5 5 1 4 9 11 14 7 4 15 7 8 20 17 20 24
14 14 13 12 11 9 9 7 6 5 6 6 5 5 7 4 3 3 16 16 17 24 19 16 7 3 6 5 5 3 8 7 4 8 8 12 11 7 15 7 14 16 18 17 18
15 14 13 12 11 9 8 6 5 4 5 5 5 6 2 3 6 5 14 16 16 15 12 10 7 4 4 3 4 2 6 3 6 11 9 11 12 9 13 11 12 12 13 17 16
16 15 13 12 11 9 9 5 4 3 3 3 4 5 1 2 3 10 17 18 14 13 5 3 3 2 4 4 2 2 5 2 3 8 8 8 5 8 5 15 14 15 14 9 15
17 15 14 12 11 9 8 4 3 3 2 2 2 3 1 8 4 16 18 19 18 14 3 4 7 5 7 7 5 6 4 5 8 4 5 8 3 4 13 16 16 15 13 10 12
18 16 14 13 10 9 7 3 3 2 2 2 2 1 6 2 3 19 19 14 17 16 10 2 4 1 1 6 6 5 5 3 2 1 5 5 5 5 15 17 16 15 14 13 13
20 17 14 13 10 8 6 1 1 1 1 1 2 1 8 2 9 21 21 10 19 16 11 5 4 0 4 3 5 7 3 5 7 6 4 3 3 10 12 14 15 14 14 14 14
24 19 15 13 10 6 3 2 2 0 2 1 1 3 5 4 4 11 26 22 3 1 3 5 3 2 3 3 2 3 5 3 4 5 6 0 4 15 15 15 16 15 14 13 11
27 22 17 13 10 6 2 3 3 2 2 7 5 4 4 5 6 9 18 8 3 0 4 3 3 8 11 9 5 6 6 7 4 6 3 5 4 18 17 11 12 13 14 12 12
29 24 18 14 9 5 3 3 3 2 6 10 6 7 10 3 4 5 14 6 6 6 1 4 6 12 9 6 5 7 5 8 9 8 4 4 8 5 14 17 17 17 15 13 6
32 26 19 15 8 5 5 6 8 16 1 7 6 5 5 9 7 7 11 6 4 4 4 5 11 7 6 7 8 6 8 10 8 5 2 4 5 5 6 4 8 11 12 12 12
33 27 19 14 2 2 3 4 8 7 4 6 4 8 5 5 4 8 13 6 3 8 5 6 5 5 10 5 7 5 12 11 17 5 4 3 4 6 9 10 9 12 13 12 10
35 26 18 9 3 3 4 13 2 3 2 3 3 1 3 8 3 4 6 5 6 6 3 8 6 7 6 4 9 10 4 17 13 8 3 3 1 6 3 12 13 12 18 16 13
36 23 16 6 8 9 10 8 6 5 4 2 5 5 5 1 3 3 3 3 3 2 2 7 3 4 6 1 3 3 4 6 5 5 1 10 8 5 6 17 15 8 15 17 15
30 21 13 8 3 4 9 3 5 3 4 3 5 5 4 4 3 3 2 5 6 2 4 8 6 5 5 3 2 5 7 4 4 3 5 2 3 9 7 6 12 14 15 15 13
25 16 7 13 9 6 2 5 3 4 6 4 4 4 7 5 5 3 4 4 1 5 3 2 8 5 4 7 6 2 7 5 3 2 5 3 6 6 7 7 1 4 2 6 8
25 7 6 4 17 3 5 3 6 6 4 5 3 5 2 1 1 2 5 6 8 8 8 6 6 6 5 5 9 2 2 4 6 2 3 3 5 6 4 2 5 1 3 6 8
16 6 5 2 17 7 5 5 5 5 5 3 3 3 6 5 7 6 5 5 7 11 5 5 2 3 5 4 5 4 5 2 4 0 3 5 4 4 4 8 5 3 8 10 8
5 3 2 16 9 5 4 7 5 6 1 5 3 4 5 4 7 5 6 6 7 4 4 5 3 7 4 4 3 3 3 5 4 4 5 1 6 3 10 1 4 7 8 7 7
4 3 1 18 4 1 3 5 4 2 3 5 4 3 4 2 3 3 4 5 5 7 11 8 5 5 8 1 2 4 4 5 5 3 1 3 5 9 5 10 9 6 6 5 13
2 2 8 4 3 2 5 4 4 3 4 4 3 3 3 3 2 4 4 5 8 3 7 7 1 2 8 7 4 6 1 5 4 3 4 4 4 7 11 12 6 6 6 12 14
2 2 4 4 0 4 1 5 5 5 6 5 1 1 3 4 5 2 6 4 8 5 6 7 4 6 7 5 3 3 3 4 6 3 2 5 5 5 6 10 5 7 9 12 12
3 0 2 2 2 3 2 3 5 4 5 8 5 4 3 4 2 5 3 6 5 11 6 4 4 3 3 1 4 3 5 3 3 3 3 5 7 4 4 5 3 4 8 13 11
2 3 4 2 3 5 2 2 2 1 5 4 6 4 5 6 3 3 2 4 1 7 6 6 2 2 2 5 6 7 7 6 5 4 1 5 5 1 9 9 8 8 8 10 9
6 3 3 4 5 2 3 5 5 3 8 4 8 5 8 3 5 5 5 3 4 1 3 4 4 3 3 3 4 3 3 6 4 9 3 3 2 3 14 11 6 6 7 7 7
Wind_Direction
358 356 354 356 353 351 343 332 314 308 312 308 313 321 307 319 323 239 228 185 175 159 158 157 189 191 63 83 140 192 33 277 190 165 214 155 147 163 99 138 269 170 115 140 147
355 353 353 354 353 348 341 332 323 311 309 309 314 325 311 323 318 239 205 172 167 166 164 164 184 151 208 218 174 161 189 234 196 179 178 167 169 140 116 164 70 96 94 134 140
354 350 350 351 349 347 342 332 328 316 308 313 314 327 316 328 281 233 191 184 164 172 184 178 176 158 240 167 204 205 228 258 228 159 148 162 171 121 145 193 178 155 141 153 153
352 349 346 349 348 345 342 331 326 323 315 316 323 329 323 323 158 253 197 193 168 161 144 160 178 253 222 182 186 233 266 239 173 137 136 177 149 131 168 204 164 161 145 151 163
350 348 346 345 343 342 341 328 320 324 320 322 332 338 353 319 247 201 172 190 191 193 187 180 185 224 359 302 145 175 319 31 166 156 155 137 172 161 193 144 147 153 164 156 166
351 346 343 344 340 338 337 324 311 314 313 322 340 343 34 296 295 188 175 188 196 204 206 160 151 212 270 257 129 216 290 77 271 159 155 142 133 116 174 145 151 164 176 178 168
351 346 343 342 341 338 335 315 297 298 302 310 340 2 5 236 281 187 189 198 205 211 185 192 137 44 329 326 24 321 58 35 146 175 176 104 104 198 151 156 161 175 183 187 203
353 346 340 339 342 339 334 305 280 277 283 301 334 6 247 350 171 185 193 231 232 227 226 26 152 44 354 323 355 33 46 62 15 0 172 103 222 150 161 161 174 182 192 197 213
354 347 339 338 339 342 333 306 245 258 292 324 52 63 268 296 189 206 200 207 231 250 244 233 132 165 28 38 355 9 39 15 323 333 147 117 145 173 172 176 180 191 199 202 216
355 348 341 336 338 344 344 143 167 163 155 81 300 357 271 231 193 190 210 222 180 176 321 150 83 80 45 108 253 72 60 349 339 332 347 329 189 173 184 184 189 195 204 209 207
356 351 342 336 331 334 152 138 27 337 221 194 193 253 279 314 247 192 192 186 270 204 210 215 141 219 220 215 132 139 151 185 273 294 67 280 212 187 187 195 198 206 209 214 208
353 348 339 335 320 294 225 179 189 175 307 229 239 266 267 303 325 270 159 160 151 224 137 13 242 238 249 198 189 174 171 123 281 240 144 219 275 205 193 203 202 201 211 219 212
351 344 337 333 308 261 222 232 152 324 81 289 194 200 214 154 211 245 151 166 165 215 186 194 252 339 238 168 179 218 191 150 252 85 24 139 269 229 214 205 204 226 221 217 202
347 341 334 335 241 251 239 55 301 168 56 274 228 267 161 180 281 210 180 141 222 216 206 229 282 319 315 167 145 215 218 163 205 131 226 187 253 219 214 211 213 211 214 218 202
344 336 326 314 275 208 142 331 85 117 352 147 208 13 156 149 222 238 167 75 207 214 111 243 309 320 317 269 161 225 131 186 196 196 95 248 26 264 169 218 226 217 213 215 205
341 332 317 291 233 239 319 341 125 43 262 310 156 173 117 164 267 50 150 100 178 203 231 256 255 226 223 274 221 327 84 65 51 95 251 232 175 268 201 215 215 219 219 211 203
339 322 285 206 236 139 342 69 49 144 318 224 196 154 148 177 255 181 183 189 185 90 332 337 285 281 195 281 36 71 53 351 3 25 223 76 127 250 247 246 197 197 213 214 198
338 325 285 232 222 284 25 55 172 232 246 292 124 77 167 161 248 232 156 206 162 91 106 196 321 201 170 178 178 103 138 149 232 230 256 84 225 254 277 219 51 119 135 181 192
340 318 279 258 213 223 79 100 215 210 275 326 75 91 279 244 185 159 211 219 200 167 173 165 274 303 242 178 138 200 174 182 113 19 24 262 297 303 343 132 281 311 256 237 208
337 324 262 213 152 130 80 229 230 220 324 357 150 156 175 232 160 159 196 222 214 186 155 203 321 283 319 112 52 122 162 53 10 288 314 301 303 242 249 215 264 343 297 305 227
348 26 353 150 132 55 169 231 260 254 355 6 303 187 195 191 181 196 241 252 180 162 161 135 112 288 11 43 192 3 6 39 120 126 165 255 271 242 254 213 116 29 353 336 63
354 56 117 159 65 28 179 203 278 274 82 275 212 213 197 222 217 166 208 229 337 165 164 203 151 210 219 276 315 145 142 131 119 249 186 155 279 342 95 83 78 51 20 39 61
48 269 166 335 148 261 280 277 259 273 240 251 250 221 207 92 169 47 342 338 356 116 159 177 198 63 345 4 359 66 33 118 117 77 197 147 263 30 70 71 64 110 77 63 63
60 51 336 50 90 134 309 273 256 257 253 192 212 346 115 59 25 67 352 336 343 33 29 92 116 156 188 188 178 75 354 85 110 80 259 209 163 143 121 129 134 88 77 67 60
26 332 178 268 305 320 212 259 283 286 358 29 55 5 176 111 54 7 343 334 337 355 24 81 112 97 57 38 133 74 68 81 113 152 173 239 156 171 94 70 52 77 77 75 72
60 28 357 272 295 344 117 244 256 91 12 24 94 31 88 114 139 169 22 36 42 331 31 358 138 137 100 334 140 81 67 65 15 353 20 64 62 68 95 73 53 42 64 74 62
1 6 102 300 344 49 310 290 308 135 12 90 151 94 61 144 190 210 196 213 230 311 15 54 110 85 215 323 83 18 30 105 95 22 305 137 57 113 96 91 67 68 64 75 76
Height
782 780 778 776 774 773 771 769 768 767 767 766 766 765 762 763 763 761 760 755 758 762 766 766 768 770 772 774 777 776 798 799 787 788 779 769 776 769 767 775 774 774 778 783 791
782 780 777 775 773 772 770 769 768 766 766 765 764 764 761 762 761 758 752 752 756 759 763 769 771 774 778 774 775 784 797 782 762 761 771 767 769 772 778 782 781 780 780 787 793
781 779 777 774 773 771 770 768 767 766 764 765 764 764 761 760 760 749 747 750 758 761 766 768 766 765 775 771 770 772 781 755 752 750 755 764 768 765 779 790 780 780 783 788 794
780 778 775 773 772 770 769 767 766 765 764 764 763 763 761 759 774 745 744 749 758 763 766 766 770 775 777 773 761 772 753 749 749 748 757 765 761 771 770 771 768 773 778 787 793
779 777 775 772 771 769 768 766 765 765 763 763 763 763 762 760 754 744 744 749 754 758 759 763 767 764 766 763 761 770 754 745 744 748 752 755 762 767 771 766 770 777 780 785 791
779 776 774 772 770 768 767 765 765 764 763 763 762 761 763 769 745 745 746 748 750 752 752 753 755 754 758 758 761 756 755 750 752 752 754 764 767 766 770 767 774 778 781 784 788
778 775 772 770 768 767 765 764 763 763 763 763 762 761 762 756 745 745 746 746 748 747 749 751 752 757 756 760 754 755 764 759 758 757 762 760 780 777 768 769 776 780 781 784 785
777 774 771 769 767 766 764 763 763 763 763 763 762 762 761 746 745 746 748 747 746 748 753 754 755 756 761 757 761 772 773 791 765 759 759 763 796 774 768 773 780 780 781 782 783
776 773 770 767 766 764 763 762 762 762 762 762 763 763 760 746 746 745 746 746 745 747 751 755 757 763 766 783 789 789 800 796 784 759 762 770 790 773 770 774 778 779 779 780 780
774 771 768 766 764 764 762 762 762 763 762 763 764 768 747 743 739 739 743 745 747 748 751 756 766 780 788 797 810 799 800 794 797 777 774 778 779 772 770 773 775 776 777 777 776
772 769 766 764 762 762 762 763 766 767 763 756 754 753 743 738 736 737 740 746 750 752 773 760 783 794 781 776 775 783 794 794 789 774 780 791 780 772 769 774 777 776 774 773 771
771 768 764 762 760 759 760 761 758 759 765 745 747 746 741 742 747 736 739 752 757 772 763 776 788 762 756 767 772 776 791 799 786 771 783 786 788 774 770 766 766 768 769 768 770
770 765 761 759 757 757 757 756 754 755 768 749 741 741 738 738 745 741 736 744 756 769 769 781 761 748 754 766 778 780 786 790 793 778 781 787 789 780 769 766 765 763 760 761 764
767 762 759 756 758 755 756 754 755 753 787 763 746 735 732 732 745 727 730 740 754 767 766 773 751 754 759 766 771 792 759 767 768 789 811 781 819 785 775 770 765 761 760 759 759
763 759 756 756 755 754 752 751 750 753 811 747 743 723 725 741 736 733 727 736 758 758 760 771 758 762 764 756 755 768 746 758 765 785 790 796 804 784 770 772 762 757 751 751 752
761 756 753 752 752 748 747 747 750 793 806 752 736 741 743 739 738 731 733 731 736 754 757 760 744 747 750 739 742 740 750 774 789 803 826 789 796 790 779 750 749 748 745 743 746
755 750 749 749 747 746 745 747 794 812 753 753 750 743 748 753 747 742 749 756 771 782 787 768 757 743 735 750 746 756 784 822 816 828 817 790 797 775 744 737 735 741 737 736 740
749 745 742 742 743 746 745 770 800 772 764 735 742 750 761 754 751 748 758 770 755 770 797 796 796 748 732 745 758 762 777 820 822 832 815 796 801 765 738 727 727 731 734 735 738
745 742 741 737 741 746 756 798 786 771 747 747 744 760 762 751 751 754 763 766 756 762 787 800 788 740 735 732 738 763 780 771 803 814 821 800 770 747 739 734 733 736 735 736 736
744 742 739 736 739 746 770 788 771 751 741 741 756 751 769 759 763 764 766 744 749 746 745 764 786 746 734 726 737 747 756 788 809 814 812 803 783 784 756 748 741 737 739 734 732
746 746 737 739 741 755 784 783 761 742 737 748 749 751 753 753 756 766 759 740 733 740 745 760 773 765 745 757 762 764 777 787 796 810 823 826 799 758 758 748 745 747 745 740 731
750 755 740 742 762 779 778 765 747 742 738 742 739 742 746 746 749 753 755 743 725 734 756 749 777 786 768 745 746 750 764 782 810 800 815 815 800 757 749 748 750 755 751 747 735
761 759 745 746 776 777 766 756 746 744 741 740 741 736 736 747 757 754 746 731 730 730 745 747 780 800 783 772 756 764 760 772 792 801 806 810 801 758 751 756 760 762 758 748 745
762 763 756 753 761 762 762 761 755 732 736 734 737 736 741 758 758 759 758 738 734 735 735 738 778 779 799 780 771 770 764 764 782 802 800 800 784 768 767 768 768 763 758 755 756
766 773 772 771 765 764 761 754 753 748 735 738 749 754 745 766 765 768 760 755 739 740 739 746 773 768 773 766 762 765 770 765 768 773 784 775 774 769 772 774 774 769 763 762 764
775 778 775 775 771 766 764 751 749 746 749 748 757 756 753 766 761 766 763 761 761 749 752 756 778 767 777 771 761 776 774 778 780 778 764 771 780 770 774 777 780 777 775 774 775
776 776 778 775 773 769 770 757 749 744 746 743 749 754 759 755 752 751 753 754 754 756 762 768 778 787 789 781 770 789 780 783 787 787 785 782 786 777 778 782 785 785 783 783 779